Peoria, IL

10:21 PM CDT on October 20, 2019 (GMT -0500)
Greater Peoria Regional

Weather History for KPIA - August, 2019

Change the Weather History Date:

Thursday, August 29, 2019

  Actual Average Record
Temperature  
Mean Temperature 70 °F 72 °F  
Max Temperature 82 °F 83 °F 96 °F (1984)
Min Temperature 59 °F 62 °F 43 °F (1986)
Degree Days  
Heating Degree Days 0 0  
Month to date heating degree days 0 0  
Since 1 June heating degree days 5 19  
Since 1 July heating degree days 0 1  
Cooling Degree Days 6 8  
Month to date cooling degree days 265 263  
Year to date cooling degree days 977 894  
Since 1 June cooling degree days 896 813  
Growing Degree Days 20 (Base 50)    
Moisture  
Dew Point 64 °F    
Average Humidity 79    
Maximum Humidity 93    
Minimum Humidity 58    
Precipitation  
Precipitation 0.00 in 0.10 in 4.32 in (1955)
Month to date precipitation 3.82 3.02  
Year to date precipitation 33.50 24.73  
Snow  
Snow 0.00 in 0.00 in 0.00 in ()
Month to date snowfall 0.0 0.0  
Since 1 June snowfall 0.0 0.0  
Since 1 July snowfall 0.0 0.0  
Snow Depth 0.00 in    
Sea Level Pressure  
Sea Level Pressure 29.96 in    
Wind  
Wind Speed 5 mph ()    
Max Wind Speed 17 mph    
Max Gust Speed 27 mph    
Visibility 10.0 miles    
Events      
T = Trace of Precipitation, MM = Missing Value Source: Averaged Metar Reports

Daily Weather History Graph

Daily Weather History Graph

Search for Another Location

Airport or City:

Astronomy

Aug. 29, 2019 Rise Set
Actual Time 6:22 AM CDT 7:36 PM CDT
Civil Twilight 5:54 AM CDT 8:04 PM CDT
Nautical Twilight 5:20 AM CDT 8:37 PM CDT
Astronomical Twilight 4:44 AM CDT 9:13 PM CDT
Moon 5:07 AM CDT (8/29) 7:33 PM CDT (8/29)
Length of Visible Light 14h 09m
Length of Day
13h 13m
Waning Crescent, 1% of the Moon is Illuminated
Aug 29
Waning Crescent
Aug 30
New
Sep 5
First Quarter
Sep 13
Full
Sep 21
Last Quarter

Hourly Weather History & Observations

Time (CDT) Temp. Heat Index Dew Point Humidity Pressure Visibility Wind Dir Wind Speed Gust Speed Precip Events Conditions
12:54 AM 60.1 °F - 55.9 °F 86% 30.01 in 10.0 mi Calm Calm - N/A   Partly Cloudy
1:54 AM 60.1 °F - 55.9 °F 86% 30.01 in 10.0 mi Calm Calm - N/A   Scattered Clouds
2:54 AM 61.0 °F - 57.0 °F 87% 30.01 in 10.0 mi Calm Calm - N/A   Partly Cloudy
3:54 AM 60.1 °F - 55.9 °F 86% 30.01 in 10.0 mi Calm Calm - N/A   Clear
4:54 AM 59.0 °F - 57.0 °F 93% 30.01 in 10.0 mi SSW 3.5 mph - N/A   Partly Cloudy
5:54 AM 60.1 °F - 57.9 °F 93% 30.01 in 10.0 mi South 3.5 mph - N/A   Mostly Cloudy
6:54 AM 61.0 °F - 57.9 °F 90% 30.01 in 10.0 mi South 4.6 mph - N/A   Scattered Clouds
7:54 AM 64.9 °F - 60.1 °F 84% 30.01 in 10.0 mi South 6.9 mph - N/A   Mostly Cloudy
8:54 AM 68.0 °F - 61.0 °F 78% 30.00 in 10.0 mi SSW 9.2 mph - N/A   Scattered Clouds
9:54 AM 73.0 °F - 62.1 °F 68% 29.99 in 10.0 mi SSW 12.7 mph - N/A   Partly Cloudy
10:54 AM 75.0 °F - 63.0 °F 66% 29.97 in 10.0 mi SSW 12.7 mph - N/A   Clear
11:54 AM 75.0 °F - 64.0 °F 69% 29.96 in 10.0 mi SW 13.8 mph - N/A   Mostly Cloudy
12:54 PM 73.9 °F - 64.0 °F 71% 29.95 in 10.0 mi SSW 12.7 mph - N/A   Clear
1:54 PM 75.0 °F - 66.0 °F 73% 29.91 in 10.0 mi SSW 15.0 mph - N/A   Clear
2:54 PM 78.1 °F - 66.9 °F 68% 29.88 in 10.0 mi SW 11.5 mph 26.5 mph N/A   Clear
3:54 PM 81.0 °F 83.0 °F 66.0 °F 60% 29.90 in 10.0 mi WSW 15.0 mph 25.3 mph N/A   Clear
4:54 PM 82.0 °F 84.5 °F 66.9 °F 60% 29.90 in 10.0 mi WSW 12.7 mph - N/A   Clear
5:54 PM 81.0 °F 83.8 °F 68.0 °F 65% 29.90 in 10.0 mi WSW 11.5 mph - N/A   Partly Cloudy
6:54 PM 80.1 °F 83.2 °F 70.0 °F 71% 29.91 in 10.0 mi WSW 6.9 mph - N/A   Mostly Cloudy
7:54 PM 77.0 °F - 71.1 °F 82% 29.92 in 10.0 mi WSW 4.6 mph - N/A   Clear
8:54 PM 73.9 °F - 70.0 °F 87% 29.93 in 10.0 mi SW 4.6 mph - N/A   Clear
9:54 PM 73.9 °F - 71.1 °F 91% 29.94 in 9.0 mi WSW 5.8 mph - N/A   Clear
10:54 PM 73.9 °F - 71.1 °F 91% 29.97 in 10.0 mi WSW 4.6 mph - N/A   Clear
11:54 PM 73.9 °F - 71.1 °F 91% 29.97 in 10.0 mi WNW 5.8 mph - N/A   Mostly Cloudy